M I D A S
Marine Information and Data Acquisition System
Tripno 758 of the Zeeleeuw from 2004-07-23 09:13:46 to 2004-07-23 13:34:26
Back to CruiseResearch ActivitiesStationsMapUnderway DataData graphs

EquipmentUnitsComments
TimeDGPSUTC
LatitudeDGPSDM.mWGS84
LongitudeDGPSDM.mWGS84
SpeedMeteo Stationm/sRelative wind speed
DirectionMeteo StationdegRelative wind direction
TemperatureMeteo Stationdeg CelciusAir temperature
PressureMeteo StationPaAtmospheric pressure
HumidityMeteo Station%Relative humidity
Missing or incorrect values are displayed as -999
Metereological data collected by the RV Zeeleeuw from 2004-07-23 09:13:46 to 2004-07-23 13:34:26
Time Latitude Longitude Speed Direction Temperature Pressure Humidity
2004-07-23 09:14 51°13.597 2°56.097 4.3 208 18.6 101890 90
2004-07-23 09:15 51°13.608 2°56.057 5.6 205 18.6 101890 89
2004-07-23 09:16 51°13.634 2°55.97 6.6 203 18.5 101900 89
2004-07-23 09:17 51°13.664 2°55.864 8.7 211 18.3 101900 90
2004-07-23 09:18 51°13.678 2°55.758 4 251 18.2 101890 90
2004-07-23 09:19 51°13.695 2°55.761 4.7 322 18.3 101890 91
2004-07-23 09:20 51°13.768 2°55.697 8 359 18.3 101890 91
2004-07-23 09:21 51°13.884 2°55.596 9.6 353 18.3 101900 91
2004-07-23 09:22 51°14.026 2°55.511 10.7 359 18.3 101890 91
2004-07-23 09:23 51°14.173 2°55.4 11.8 7 18.3 101890 91
2004-07-23 09:24 51°14.307 2°55.175 13.3 11 18.2 101880 91
2004-07-23 09:25 51°14.461 2°54.932 13.8 3 18.1 101890 91
2004-07-23 09:26 51°14.637 2°54.73 14.3 1 18.1 101890 92
2004-07-23 09:27 51°14.827 2°54.562 13.8 358 18 101880 92
2004-07-23 09:28 51°15.013 2°54.396 13.1 350 18 101890 92
2004-07-23 09:29 51°15.201 2°54.24 14.4 358 18.1 101890 92
2004-07-23 09:30 51°15.385 2°54.064 14.2 348 18.1 101890 92
2004-07-23 09:31 51°15.582 2°53.914 13.3 352 18.2 101890 92
2004-07-23 09:32 51°15.771 2°53.767 14.2 351 18.2 101890 92
2004-07-23 09:33 51°15.972 2°53.607 13.4 350 18.2 101890 91
2004-07-23 09:34 51°16.165 2°53.45 14.5 347 18.2 101890 91
2004-07-23 09:35 51°16.357 2°53.289 14.2 354 18.3 101890 91
2004-07-23 09:36 51°16.545 2°53.115 15.3 348 18.3 101890 92
2004-07-23 09:37 51°16.734 2°52.945 13.1 353 18.2 101880 91
2004-07-23 09:38 51°16.922 2°52.79 13.4 350 18.2 101890 91
2004-07-23 09:39 51°17.112 2°52.627 14.8 354 18.2 101890 91
2004-07-23 09:40 51°17.301 2°52.464 14 2 18.2 101900 91
2004-07-23 09:41 51°17.426 2°52.176 15.4 12 18.1 101890 91
2004-07-23 09:42 51°17.52 2°51.85 14.4 17 18 101890 91
2004-07-23 09:43 51°17.603 2°51.51 14.9 19 17.9 101890 91
2004-07-23 09:44 51°17.69 2°51.176 15.6 20 18 101890 91
2004-07-23 09:45 51°17.765 2°50.829 14.3 15 18 101890 91
2004-07-23 09:46 51°17.842 2°50.481 14.6 18 18 101900 91
2004-07-23 09:47 51°17.916 2°50.136 15.2 23 17.9 101890 91
2004-07-23 09:48 51°17.99 2°49.789 16.2 16 18 101890 91
2004-07-23 09:49 51°18.064 2°49.443 15.7 16 17.9 101890 91
2004-07-23 09:50 51°18.144 2°49.097 15.4 17 17.9 101900 91
2004-07-23 09:51 51°18.227 2°48.75 15.3 13 17.8 101900 91
2004-07-23 09:52 51°18.305 2°48.406 15.7 12 17.8 101900 91
2004-07-23 09:53 51°18.382 2°48.054 16.1 23 17.8 101890 91
2004-07-23 09:54 51°18.439 2°47.693 15.3 20 17.8 101880 91
2004-07-23 09:55 51°18.496 2°47.332 15 20 17.8 101880 91
2004-07-23 09:56 51°18.548 2°46.971 15 19 17.9 101880 91
2004-07-23 09:57 51°18.607 2°46.611 15.6 16 17.8 101890 91
2004-07-23 09:58 51°18.675 2°46.247 15.4 17 17.8 101890 91
2004-07-23 09:59 51°18.741 2°45.893 16.7 21 17.9 101900 91
2004-07-23 10:00 51°18.807 2°45.531 15.6 16 17.9 101890 90
2004-07-23 10:01 51°18.878 2°45.171 15.8 18 17.9 101900 90
2004-07-23 10:02 51°18.951 2°44.811 15.9 20 17.9 101910 90
2004-07-23 10:03 51°19.026 2°44.447 16.5 18 17.8 101900 91
2004-07-23 10:04 51°19.098 2°44.088 16.8 19 17.8 101900 91
2004-07-23 10:05 51°19.169 2°43.732 16.4 18 17.8 101900 90
2004-07-23 10:06 51°19.238 2°43.377 17.1 17 17.8 101900 90
2004-07-23 10:07 51°19.306 2°43.021 15.9 16 17.8 101900 90
2004-07-23 10:08 51°19.375 2°42.657 14.2 13 17.8 101910 90
2004-07-23 10:09 51°19.442 2°42.306 15.6 13 17.8 101910 90
2004-07-23 10:10 51°19.516 2°41.918 16.8 17 17.8 101920 90
2004-07-23 10:11 51°19.587 2°41.561 15.2 15 17.8 101920 90
2004-07-23 10:12 51°19.658 2°41.205 15.4 17 17.8 101930 90
2004-07-23 10:13 51°19.735 2°40.819 15.6 16 17.8 101930 90
2004-07-23 10:15 51°19.811 2°40.441 15.8 14 17.8 101940 91
2004-07-23 10:16 51°19.88 2°40.074 15.5 14 17.8 101950 91
2004-07-23 10:17 51°19.949 2°39.71 15.7 15 17.7 101940 91
2004-07-23 10:18 51°20.019 2°39.347 14.6 13 17.7 101940 91
2004-07-23 10:19 51°20.088 2°38.984 14 12 17.7 101950 91
2004-07-23 10:20 51°20.157 2°38.62 15.8 15 17.7 101950 91
2004-07-23 10:21 51°20.228 2°38.257 14.5 14 17.7 101960 91
2004-07-23 10:22 51°20.297 2°37.894 15.5 11 17.7 101960 91
2004-07-23 10:23 51°20.367 2°37.532 13.6 13 17.7 101960 91
2004-07-23 10:24 51°20.451 2°37.159 13.6 7 17.7 101960 91
2004-07-23 10:25 51°20.553 2°36.822 14.5 4 17.7 101970 91
2004-07-23 10:26 51°20.681 2°36.497 14.1 2 17.7 101960 91
2004-07-23 10:27 51°20.807 2°36.192 14.2 359 17.7 101980 91
2004-07-23 10:28 51°20.955 2°35.911 14.5 353 17.7 101970 91
2004-07-23 10:29 51°21.134 2°35.707 13.9 349 17.8 101970 91
2004-07-23 10:30 51°21.306 2°35.484 14.4 348 17.8 101970 91
2004-07-23 10:31 51°21.478 2°35.257 13.5 348 17.8 101980 91
2004-07-23 10:32 51°21.647 2°35.025 13.9 348 17.8 101970 90
2004-07-23 10:33 51°21.825 2°34.792 13.3 350 17.8 101980 91
2004-07-23 10:34 51°21.989 2°34.569 12.5 354 17.8 101980 90
2004-07-23 10:35 51°22.154 2°34.269 14.2 357 17.8 101980 90
2004-07-23 10:36 51°22.285 2°33.97 13.3 9 17.8 101980 90
2004-07-23 10:37 51°22.373 2°33.62 13.5 11 17.7 101980 90
2004-07-23 10:38 51°22.44 2°33.264 14.4 10 17.6 101980 90
2004-07-23 10:39 51°22.509 2°32.893 13.9 15 17.6 101980 91
2004-07-23 10:40 51°22.515 2°32.503 13.6 23 17.6 101960 90
2004-07-23 10:41 51°22.52 2°32.108 13.9 22 17.6 101970 90
2004-07-23 10:42 51°22.531 2°31.717 13.8 18 17.6 101970 90
2004-07-23 10:43 51°22.542 2°31.314 14.4 19 17.6 101970 90
2004-07-23 10:44 51°22.555 2°30.915 13.1 18 17.5 101970 90
2004-07-23 10:45 51°22.575 2°30.514 14.2 19 17.5 101980 90
2004-07-23 10:46 51°22.588 2°30.125 13.8 16 17.5 101970 90
2004-07-23 10:47 51°22.599 2°29.741 13.4 22 17.5 101980 90
2004-07-23 10:48 51°22.613 2°29.34 14.4 21 17.5 101970 89
2004-07-23 10:49 51°22.623 2°28.946 13.8 18 17.5 101980 89
2004-07-23 10:50 51°22.63 2°28.553 14 19 17.5 101980 89
2004-07-23 10:51 51°22.633 2°28.162 14.1 22 17.5 101980 89
2004-07-23 10:52 51°22.625 2°27.775 13.7 22 17.5 101990 89
2004-07-23 10:53 51°22.609 2°27.381 13.4 25 17.5 101990 89
2004-07-23 10:54 51°22.6 2°26.954 14 21 17.5 101980 88
2004-07-23 10:55 51°22.6 2°26.56 14.1 18 17.5 101990 88
2004-07-23 10:56 51°22.661 2°26.2 13.3 357 17.5 102000 88
2004-07-23 10:57 51°22.841 2°26.048 13.9 341 17.5 102000 88
2004-07-23 10:58 51°23.038 2°25.932 13.5 345 17.5 102000 88
2004-07-23 10:59 51°23.244 2°25.836 12.4 338 17.6 102000 88
2004-07-23 11:00 51°23.45 2°25.789 12.5 341 17.6 102000 88
2004-07-23 11:01 51°23.654 2°25.776 12 333 17.6 102000 87
2004-07-23 11:02 51°23.856 2°25.794 12.6 335 17.6 102000 87
2004-07-23 11:03 51°24.053 2°25.817 10.8 338 17.7 102000 87
2004-07-23 11:04 51°24.255 2°25.854 11.4 333 17.7 102010 87
2004-07-23 11:05 51°24.452 2°25.895 11.5 332 17.7 102010 87
2004-07-23 11:06 51°24.647 2°25.932 11.4 335 17.7 102010 87
2004-07-23 11:07 51°24.842 2°25.965 11.6 333 17.7 102020 87
2004-07-23 11:08 51°25.033 2°25.995 11.1 333 17.7 102020 87
2004-07-23 11:09 51°25.223 2°26.029 10.3 335 17.7 102020 87
2004-07-23 11:10 51°25.414 2°26.06 10.9 333 17.7 102020 87
2004-07-23 11:11 51°25.602 2°26.091 10.4 330 17.7 102020 87
2004-07-23 11:12 51°25.796 2°26.129 10.8 332 17.6 102010 87
2004-07-23 11:13 51°25.991 2°26.163 11.3 329 17.6 102010 87
2004-07-23 11:14 51°26.189 2°26.212 11.1 331 17.6 102010 87
2004-07-23 11:15 51°26.384 2°26.262 10.8 330 17.6 102010 87
2004-07-23 11:16 51°26.577 2°26.314 10.5 332 17.6 102010 87
2004-07-23 11:17 51°26.772 2°26.367 10.6 333 17.6 102020 87
2004-07-23 11:18 51°26.967 2°26.416 10.5 336 17.6 102010 87
2004-07-23 11:19 51°27.164 2°26.465 10.3 332 17.5 102020 87
2004-07-23 11:20 51°27.363 2°26.529 11.5 332 17.6 102010 87
2004-07-23 11:21 51°27.561 2°26.597 10.6 340 17.5 102020 88
2004-07-23 11:22 51°27.76 2°26.664 10 335 17.6 102020 88
2004-07-23 11:23 51°27.955 2°26.729 9.7 336 17.6 102020 88
2004-07-23 11:24 51°28.158 2°26.8 10 334 17.6 102030 88
2004-07-23 11:25 51°28.359 2°26.871 9.8 335 17.5 102030 88
2004-07-23 11:26 51°28.563 2°26.931 10.9 337 17.6 102030 88
2004-07-23 11:27 51°28.689 2°26.966 6.6 308 17.5 102030 88
2004-07-23 11:28 51°28.718 2°27.029 5.2 262 17.5 102040 88
2004-07-23 11:29 51°28.711 2°27.061 4 244 17.5 102040 88
2004-07-23 11:30 51°28.694 2°27.08 4.3 239 17.4 102050 89
2004-07-23 11:31 51°28.676 2°27.081 4.3 249 17.4 102050 89
2004-07-23 11:32 51°28.657 2°27.067 4.6 259 17.4 102050 89
2004-07-23 11:33 51°28.638 2°27.049 5.9 264 17.3 102050 89
2004-07-23 11:34 51°28.62 2°27.034 4.8 272 17.3 102050 90
2004-07-23 11:35 51°28.684 2°27.108 8.6 321 17.4 102050 90
2004-07-23 11:36 51°28.789 2°27.37 6.7 321 17.5 102040 90
2004-07-23 11:37 51°28.87 2°27.67 6.8 320 17.5 102050 89
2004-07-23 11:38 51°28.94 2°27.974 5.4 320 17.5 102050 89
2004-07-23 11:39 51°28.985 2°28.29 5.7 317 17.6 102050 89
2004-07-23 11:40 51°29.034 2°28.604 5.1 314 17.6 102050 89
2004-07-23 11:41 51°29.08 2°28.919 5.3 318 17.6 102050 89
2004-07-23 11:42 51°29.118 2°29.238 4.9 318 17.6 102050 89
2004-07-23 11:43 51°29.156 2°29.558 5.8 318 17.6 102050 89
2004-07-23 11:44 51°29.208 2°29.874 6 331 17.6 102050 89
2004-07-23 11:45 51°29.252 2°30.194 6.1 330 17.7 102060 89
2004-07-23 11:46 51°29.299 2°30.516 6.1 332 17.7 102060 89
2004-07-23 11:47 51°29.346 2°30.83 5.5 332 17.7 102060 89
2004-07-23 11:48 51°29.393 2°31.151 6.1 333 17.7 102060 89
2004-07-23 11:49 51°29.441 2°31.473 6.1 332 17.7 102060 89
2004-07-23 11:50 51°29.491 2°31.795 6 322 17.7 102060 88
2004-07-23 11:51 51°29.542 2°32.117 6 320 17.7 102060 88
2004-07-23 11:52 51°29.588 2°32.444 6.5 324 17.7 102050 88
2004-07-23 11:53 51°29.633 2°32.773 5.6 320 17.6 102050 88
2004-07-23 11:54 51°29.68 2°33.101 6.1 318 17.7 102050 88
2004-07-23 11:55 51°29.722 2°33.418 6 228 17.6 102050 88
2004-07-23 11:56 51°29.76 2°33.725 5.5 312 17.6 102050 88
2004-07-23 11:57 51°29.789 2°34.039 5.5 319 17.6 102040 88
2004-07-23 11:58 51°29.772 2°34.377 5.2 43 17.6 102050 88
2004-07-23 11:59 51°29.75 2°34.705 3.8 324 17.7 102050 88
2004-07-23 12:00 51°29.671 2°35.029 3.1 337 17.7 102050 87
2004-07-23 12:01 51°29.53 2°35.309 2.7 352 17.8 102050 87
2004-07-23 12:02 51°29.376 2°35.58 3.1 9 17.9 102060 87
2004-07-23 12:03 51°29.218 2°35.841 3.3 1 17.9 102060 87
2004-07-23 12:04 51°29.042 2°36.075 2.5 10 18 102050 86
2004-07-23 12:05 51°28.858 2°36.292 2.4 21 18 102060 86
2004-07-23 12:06 51°28.671 2°36.514 2.3 16 18 102060 86
2004-07-23 12:07 51°28.481 2°36.718 2.2 29 18 102060 86
2004-07-23 12:08 51°28.29 2°36.929 2.6 25 17.9 102060 86
2004-07-23 12:09 51°28.101 2°37.146 2.3 23 17.9 102060 86
2004-07-23 12:10 51°27.913 2°37.365 2.2 38 17.9 102060 86
2004-07-23 12:11 51°27.719 2°37.575 3.3 32 17.9 102060 86
2004-07-23 12:12 51°27.523 2°37.779 2.8 31 17.9 102060 86
2004-07-23 12:13 51°27.316 2°37.993 3.4 25 17.9 102060 86
2004-07-23 12:14 51°27.113 2°38.194 2.9 33 17.9 102060 86
2004-07-23 12:15 51°26.919 2°38.383 3.7 16 17.9 102060 85
2004-07-23 12:16 51°26.711 2°38.582 3.2 29 18 102070 86
2004-07-23 12:17 51°26.515 2°38.765 3.3 23 18 102070 85
2004-07-23 12:18 51°26.292 2°38.981 2.6 30 18 102070 85
2004-07-23 12:19 51°26.077 2°39.185 2.2 46 18 102070 85
2004-07-23 12:20 51°25.851 2°39.372 3 40 17.9 102070 85
2004-07-23 12:21 51°25.637 2°39.555 2.2 49 17.8 102070 86
2004-07-23 12:22 51°25.432 2°39.729 2.8 51 17.8 102070 86
2004-07-23 12:23 51°25.228 2°39.902 2.8 60 17.7 102070 86
2004-07-23 12:24 51°25.026 2°40.084 3.2 52 17.7 102080 86
2004-07-23 12:25 51°24.823 2°40.265 2.5 52 17.7 102080 87
2004-07-23 12:26 51°24.627 2°40.442 3 48 17.7 102080 87
2004-07-23 12:27 51°24.418 2°40.633 3.1 32 17.7 102080 87
2004-07-23 12:28 51°24.213 2°40.813 3.9 41 17.7 102080 87
2004-07-23 12:29 51°24.004 2°40.985 3 53 17.7 102080 87
2004-07-23 12:30 51°23.796 2°41.157 3.3 47 17.7 102080 87
2004-07-23 12:31 51°23.593 2°41.328 3.2 50 17.6 102080 87
2004-07-23 12:32 51°23.354 2°41.483 3.1 51 17.7 102070 88
2004-07-23 12:33 51°23.137 2°41.622 4.1 55 17.6 102080 88
2004-07-23 12:34 51°22.916 2°41.746 5.3 60 17.6 102080 88
2004-07-23 12:35 51°22.657 2°41.739 5.7 55 17.6 102070 88
2004-07-23 12:36 51°22.42 2°41.721 5.7 43 17.5 102080 88
2004-07-23 12:37 51°22.173 2°41.707 5.1 45 17.5 102080 88
2004-07-23 12:38 51°21.933 2°41.696 6.4 54 17.5 102080 89
2004-07-23 12:39 51°21.676 2°41.681 5.6 47 17.5 102080 89
2004-07-23 12:40 51°21.437 2°41.705 5.6 46 17.5 102090 89
2004-07-23 12:41 51°21.205 2°41.751 4.1 45 17.6 102090 89
2004-07-23 12:42 51°20.983 2°41.88 3.3 29 17.6 102090 89
2004-07-23 12:43 51°20.785 2°42.056 2.3 28 17.6 102090 89
2004-07-23 12:44 51°20.614 2°42.286 2.9 1 17.7 102100 88
2004-07-23 12:45 51°20.476 2°42.561 3 2 17.9 102100 87
2004-07-23 12:46 51°20.345 2°42.844 3.6 358 18.1 102100 87
2004-07-23 12:47 51°20.232 2°43.137 3.5 348 18.2 102100 86
2004-07-23 12:48 51°20.131 2°43.423 3.7 358 18.3 102100 85
2004-07-23 12:49 51°20.035 2°43.733 3.4 359 18.4 102110 84
2004-07-23 12:50 51°19.939 2°44.033 3.8 358 18.4 102110 84
2004-07-23 12:51 51°19.845 2°44.337 3.8 355 18.4 102110 84
2004-07-23 12:52 51°19.75 2°44.643 3.5 346 18.5 102120 84
2004-07-23 12:53 51°19.656 2°44.955 3.4 348 18.5 102120 83
2004-07-23 12:54 51°19.569 2°45.272 3.4 351 18.5 102120 82
2004-07-23 12:55 51°19.477 2°45.579 3.1 352 18.6 102120 82
2004-07-23 12:56 51°19.378 2°45.885 3.5 350 18.7 102110 83
2004-07-23 12:57 51°19.284 2°46.188 3.2 356 18.7 102120 82
2004-07-23 12:58 51°19.191 2°46.488 3.3 359 18.7 102120 81
2004-07-23 12:59 51°19.098 2°46.789 3.2 359 18.7 102120 81
2004-07-23 13:00 51°19.009 2°47.093 3.8 347 18.8 102120 82
2004-07-23 13:01 51°18.929 2°47.419 3.7 338 18.8 102120 81
2004-07-23 13:02 51°18.848 2°47.738 3.4 340 18.8 102120 81
2004-07-23 13:03 51°18.772 2°48.051 3.5 338 18.8 102120 80
2004-07-23 13:04 51°18.689 2°48.399 3.7 341 18.8 102130 80
2004-07-23 13:05 51°18.607 2°48.715 3.6 338 18.9 102130 80
2004-07-23 13:06 51°18.511 2°49.026 3.2 353 18.8 102130 80
2004-07-23 13:07 51°18.411 2°49.341 4.3 347 18.9 102130 80
2004-07-23 13:08 51°18.311 2°49.66 4.1 356 18.8 102130 80
2004-07-23 13:09 51°18.214 2°49.976 3.6 354 18.9 102130 80
2004-07-23 13:10 51°18.11 2°50.288 3.9 349 18.8 102130 80
2004-07-23 13:11 51°18.008 2°50.598 3.4 351 18.8 102130 80
2004-07-23 13:12 51°17.91 2°50.91 3.1 347 18.8 102130 80
2004-07-23 13:13 51°17.803 2°51.214 2.8 359 18.9 102130 80
2004-07-23 13:14 51°17.678 2°51.505 3.5 360 18.9 102140 80
2004-07-23 13:15 51°17.554 2°51.799 3.4 14 18.9 102140 80
2004-07-23 13:16 51°17.386 2°52.047 3.9 22 18.9 102150 80
2004-07-23 13:17 51°17.184 2°52.228 4.9 27 18.9 102150 80
2004-07-23 13:18 51°16.966 2°52.363 4.9 27 18.7 102150 80
2004-07-23 13:19 51°16.744 2°52.496 5 27 18.7 102150 81
2004-07-23 13:20 51°16.527 2°52.643 4.6 23 18.6 102150 81
2004-07-23 13:21 51°16.317 2°52.793 4.4 27 18.6 102160 81
2004-07-23 13:22 51°16.098 2°52.947 3.8 22 18.6 102160 81
2004-07-23 13:23 51°15.887 2°53.091 4.7 28 18.7 102160 81
2004-07-23 13:24 51°15.676 2°53.234 5 21 18.7 102150 82
2004-07-23 13:26 51°15.463 2°53.433 4 21 18.7 102160 82
2004-07-23 13:27 51°15.268 2°53.629 4.1 17 18.8 102160 81
2004-07-23 13:28 51°15.08 2°53.829 3.7 20 18.8 102160 80
2004-07-23 13:29 51°14.901 2°54.041 3.6 8 18.8 102170 80
2004-07-23 13:30 51°14.737 2°54.279 3.5 14 18.8 102170 80
2004-07-23 13:31 51°14.592 2°54.54 3.6 356 18.8 102170 80
2004-07-23 13:32 51°14.466 2°54.815 3.1 7 18.9 102170 80
2004-07-23 13:33 51°14.364 2°55.04 2.6 355 19 102170 80
2004-07-23 13:34 51°14.273 2°55.233 1.6 4 19.1 102170 80